This demonstration page uses our WeatherBlox Daily Observations layout. Learn more.

Left ArrowRight Arrow

Hourly Observations for March 3, 2015

Temp ( °F °C ) Dew Point ( °F °C ) Humidity (%) Winds ( mph kmh ) Pressure ( in mb ) Visibility ( mi km ) Precip ( " mm )
12:51 am 00:51 Cloudy 46 7.8 42 5.6 86 86 W 5 7 29.88 1012 10 16 0.00 0.03
1:51 am 01:51 Cloudy 46 7.8 41 5 83 83 Calm 29.85 1011 10 16 0.00 0.00
2:51 am 02:51 Cloudy 46 7.8 42 5.6 86 86 S 5 7 29.84 1011 10 16 0.00 0.00
3:51 am 03:51 Cloudy 45 7.2 41 5 86 86 SW 5 7 29.85 1011 10 16 0.00 0.00
4:51 am 04:51 Mostly Cloudy 45 7.2 41 5 86 86 NNW 3 6 29.83 1010 10 16 0.00 0.00
5:51 am 05:51 Partly Cloudy 43 6.1 41 5 93 93 E 6 9 29.86 1011 10 16 0.00 0.00
6:51 am 06:51 Sunny 41 5 39 3.9 93 93 Calm 29.89 1012 10 16 0.00 0.00
7:51 am 07:51 Sunny 45 7.2 41 5 86 86 Calm 29.88 1012 10 16 0.00 0.00
8:51 am 08:51 Sunny 49 9.4 42 5.6 77 77 Calm 29.88 1012 10 16 0.00 0.00
9:51 am 09:51 Sunny 50 10 39 3.9 66 66 Calm 29.89 1012 10 16 0.00 0.00
10:51 am 10:51 Sunny 53 11.7 39 3.9 59 59 WSW 3 6 29.86 1011 10 16 0.00 0.00
11:51 am 11:51 Mostly Sunny 58 14.4 38 3.3 48 48 N 7 11 29.84 1011 10 16 0.00 0.00
12:51 pm 12:51 Mostly Sunny 58 14.4 36 2.2 44 44 NW 7 11 29.82 1010 10 16 0.00 0.00
1:51 pm 13:51 Sunny 61 16.1 33 0.6 35 35 NW 8 13 29.78 1008 10 16 0.00 0.00
2:51 pm 14:51 Sunny 61 16.1 33 0.6 35 35 NNW 6 9 29.75 1007 10 16 0.00 0.00
3:51 pm 15:51 Sunny 62 16.7 33 0.6 34 34 WNW 9 15 29.73 1007 10 16 0.00 0.00
4:51 pm 16:51 Sunny 61 16.1 31 -0.6 32 32 WNW 12 19 29.73 1007 10 16 0.00 0.00
5:51 pm 17:51 Sunny 57 13.9 28 -2.2 33 33 NW 15 24 29.73 1007 10 16 0.00 0.00
6:51 pm 18:51 Clear 55 12.8 28 -2.2 35 35 NW 15 24 29.75 1008 10 16 0.00 0.00
7:51 pm 19:51 Clear 52 11.1 29 -1.7 41 41 NW 10 17 29.77 1008 10 16 0.00 0.00
8:51 pm 20:51 Clear 50 10 29 -1.7 44 44 NW 10 17 29.78 1008 10 16 0.00 0.00
9:51 pm 21:51 Clear 48 8.9 29 -1.7 48 48 NW 9 15 29.80 1009 10 16 0.00 0.00
10:51 pm 22:51 Clear 46 7.8 29 -1.7 51 51 WNW 8 13 29.80 1009 10 16 0.00 0.00
11:51 pm 23:51 Clear 43 6.1 29 -1.7 58 58 NW 6 9 29.80 1009 10 16 0.00 0.00

Powered by AerisWeather